Вернуться в каталог

FENGYUN 1C DEB

АктивенSSO
NORAD 31313·DEBRIS·🇨🇳 China

Запущен May 10, 1999 с Taiyuan Satellite Launch Center

Loading…

Ближайшие Пролёты (ближайшие 24 часа)

TLE

СвежийSource: Space-Track

Эпоха: Sep 12, 2026, 05:15 UTC

1 31313U 99025BPR 26255.21881575  .00000315  00000-0  15999-3 0  9998
2 31313  99.0011 170.1306 0045634 117.2151 243.3687 14.22590223  9250

Отслеживайте FENGYUN 1C DEB в реальном времени с AllMySat

Download on the App Store